• In Deutschland
  • Länderverzeichnis
  • Für 7 Tage
  • Wassertemperatur
  • Satellitenkarten
  • Wetterkarte
  • Widgets
  • user-avatar
    Anmelden

    Stündliche Wetter Algier

    Heute, 26 Juli, Mittwoch

    Zeit Temperatur Niederschläge Wind Luftdruck Luftfeuchtigkeit
    00:00 +26°C° 0 mm 3 m/S 747 mmHg 79%
    01:00 +26°C° 0 mm 3 m/S 747 mmHg 80%
    02:00 +25°C° 0 mm 3 m/S 747 mmHg 80%
    03:00 +25°C° 0 mm 3 m/S 747 mmHg 81%
    04:00 +25°C° 0 mm 3 m/S 747 mmHg 78%
    05:00 +26°C° 0 mm 3 m/S 747 mmHg 75%
    06:00 +27°C° 0 mm 3 m/S 747 mmHg 66%
    07:00 +29°C° 0 mm 3 m/S 747 mmHg 57%
    08:00 +30°C° 0 mm 3 m/S 747 mmHg 49%
    09:00 +33°C° 0 mm 4 m/S 747 mmHg 40%
    10:00 +34°C° 0 mm 4 m/S 747 mmHg 37%
    11:00 +35°C° 0 mm 4 m/S 747 mmHg 35%
    12:00 +36°C° 0 mm 5 m/S 747 mmHg 32%
    13:00 +36°C° 0 mm 5 m/S 747 mmHg 32%
    14:00 +36°C° 0 mm 5 m/S 747 mmHg 32%
    15:00 +36°C° 0 mm 5 m/S 747 mmHg 32%
    16:00 +35°C° 0 mm 5 m/S 747 mmHg 35%
    17:00 +34°C° 0 mm 4 m/S 747 mmHg 37%
    18:00 +32°C° 0 mm 4 m/S 747 mmHg 40%
    19:00 +30°C° 0 mm 4 m/S 748 mmHg 45%
    20:00 +29°C° 0 mm 3 m/S 748 mmHg 49%
    21:00 +28°C° 0 mm 2 m/S 748 mmHg 54%
    22:00 +27°C° 0 mm 2 m/S 749 mmHg 54%
    23:00 +27°C° 0 mm 2 m/S 749 mmHg 55%

    Morgen, 27 Juli, Donnerstag

    Zeit Temperatur Niederschläge Wind Luftdruck Luftfeuchtigkeit
    00:00 +27°C° 0 mm 2 m/S 749 mmHg 55%
    01:00 +26°C° 0 mm 2 m/S 748 mmHg 55%
    02:00 +26°C° 0 mm 2 m/S 748 mmHg 55%
    03:00 +26°C° 0 mm 2 m/S 748 mmHg 55%
    04:00 +26°C° 0 mm 2 m/S 748 mmHg 53%
    05:00 +27°C° 0 mm 2 m/S 748 mmHg 52%
    06:00 +27°C° 0 mm 2 m/S 749 mmHg 51%
    07:00 +29°C° 0 mm 2 m/S 749 mmHg 44%
    08:00 +31°C° 0 mm 2 m/S 749 mmHg 37%
    09:00 +34°C° 0 mm 2 m/S 749 mmHg 31%
    10:00 +35°C° 0 mm 2 m/S 749 mmHg 28%
    11:00 +36°C° 0 mm 3 m/S 749 mmHg 25%
    12:00 +38°C° 0 mm 4 m/S 749 mmHg 23%
    13:00 +38°C° 0 mm 4 m/S 748 mmHg 23%
    14:00 +38°C° 0 mm 4 m/S 748 mmHg 23%
    15:00 +38°C° 0 mm 4 m/S 748 mmHg 24%
    16:00 +37°C° 0 mm 4 m/S 748 mmHg 26%
    17:00 +36°C° 0 mm 4 m/S 748 mmHg 28%
    18:00 +35°C° 0 mm 4 m/S 748 mmHg 30%
    19:00 +34°C° 0 mm 4 m/S 748 mmHg 33%
    20:00 +33°C° 0 mm 3 m/S 748 mmHg 35%
    21:00 +31°C° 0 mm 3 m/S 749 mmHg 38%
    22:00 +31°C° 0 mm 3 m/S 748 mmHg 37%
    23:00 +30°C° 0 mm 3 m/S 748 mmHg 36%

    übermorgen, 28 Juli, Freitag

    Zeit Temperatur Niederschläge Wind Luftdruck Luftfeuchtigkeit
    00:00 +30°C° 0 mm 3 m/S 748 mmHg 35%
    01:00 +30°C° 0 mm 2 m/S 748 mmHg 34%
    02:00 +30°C° 0 mm 2 m/S 747 mmHg 33%
    03:00 +30°C° 0 mm 2 m/S 747 mmHg 32%
    04:00 +31°C° 0 mm 2 m/S 748 mmHg 32%
    05:00 +31°C° 0 mm 2 m/S 748 mmHg 31%
    06:00 +32°C° 0 mm 2 m/S 748 mmHg 31%
    07:00 +35°C° 0 mm 2 m/S 748 mmHg 27%
    08:00 +37°C° 0 mm 3 m/S 749 mmHg 23%
    09:00 +40°C° 0 mm 3 m/S 749 mmHg 20%
    10:00 +42°C° 0 mm 3 m/S 749 mmHg 18%
    11:00 +43°C° 0 mm 4 m/S 748 mmHg 16%
    12:00 +44°C° 0 mm 4 m/S 748 mmHg 14%
    13:00 +45°C° 0 mm 5 m/S 748 mmHg 14%
    14:00 +45°C° 0 mm 5 m/S 747 mmHg 14%
    15:00 +45°C° 0 mm 5 m/S 747 mmHg 15%
    16:00 +43°C° 0 mm 5 m/S 747 mmHg 16%
    17:00 +42°C° 0 mm 5 m/S 747 mmHg 18%
    18:00 +41°C° 0 mm 5 m/S 747 mmHg 19%
    19:00 +38°C° 0 mm 4 m/S 747 mmHg 22%
    20:00 +36°C° 0 mm 4 m/S 748 mmHg 24%
    21:00 +35°C° 0 mm 3 m/S 748 mmHg 27%
    22:00 +35°C° 0 mm 3 m/S 748 mmHg 26%
    23:00 +34°C° 0 mm 3 m/S 748 mmHg 25%

    29 Juli, Samstag

    Zeit Temperatur Niederschläge Wind Luftdruck Luftfeuchtigkeit
    00:00 +34°C° 0 mm 3 m/S 748 mmHg 24%
    01:00 +34°C° 0 mm 3 m/S 748 mmHg 25%
    02:00 +34°C° 0 mm 3 m/S 747 mmHg 25%
    03:00 +33°C° 0 mm 3 m/S 747 mmHg 26%
    04:00 +34°C° 0 mm 3 m/S 747 mmHg 27%
    05:00 +34°C° 0 mm 3 m/S 747 mmHg 27%
    06:00 +34°C° 0 mm 2 m/S 748 mmHg 28%
    07:00 +36°C° 0 mm 2 m/S 748 mmHg 26%
    08:00 +38°C° 0 mm 2 m/S 748 mmHg 24%
    09:00 +40°C° 0 mm 2 m/S 748 mmHg 22%
    10:00 +40°C° 0 mm 2 m/S 748 mmHg 22%
    11:00 +41°C° 0 mm 2 m/S 748 mmHg 21%
    12:00 +43°C° 0 mm 3 m/S 748 mmHg 21%
    13:00 +43°C° 0 mm 3 m/S 748 mmHg 22%
    14:00 +43°C° 0 mm 3 m/S 748 mmHg 24%
    15:00 +42°C° 0 mm 3 m/S 747 mmHg 25%
    16:00 +40°C° 0 mm 2 m/S 747 mmHg 28%
    17:00 +39°C° 0 mm 2 m/S 747 mmHg 31%
    18:00 +37°C° 0 mm 1 m/S 747 mmHg 34%
    19:00 +35°C° 0 mm 1 m/S 748 mmHg 38%
    20:00 +34°C° 0 mm 1 m/S 748 mmHg 42%
    21:00 +32°C° 0 mm 1 m/S 748 mmHg 46%
    22:00 +32°C° 0 mm 1 m/S 748 mmHg 45%
    23:00 +32°C° 0 mm 1 m/S 748 mmHg 45%

    30 Juli, Sonntag

    Zeit Temperatur Niederschläge Wind Luftdruck Luftfeuchtigkeit
    00:00 +32°C° 0 mm 1 m/S 748 mmHg 45%
    01:00 +31°C° 0 mm 2 m/S 747 mmHg 48%
    02:00 +30°C° 0 mm 2 m/S 747 mmHg 50%
    03:00 +30°C° 0 mm 3 m/S 747 mmHg 53%
    04:00 +30°C° 0 mm 3 m/S 747 mmHg 53%
    05:00 +30°C° 0 mm 2 m/S 747 mmHg 54%
    06:00 +30°C° 0 mm 2 m/S 748 mmHg 54%
    07:00 +32°C° 0 mm 2 m/S 748 mmHg 45%
    08:00 +36°C° 0 mm 2 m/S 748 mmHg 37%
    09:00 +38°C° 0 mm 2 m/S 748 mmHg 28%
    10:00 +39°C° 0 mm 2 m/S 748 mmHg 26%
    11:00 +40°C° 0 mm 3 m/S 748 mmHg 23%
    12:00 +42°C° 0 mm 3 m/S 747 mmHg 20%
    13:00 +42°C° 0 mm 3 m/S 747 mmHg 21%
    14:00 +42°C° 0 mm 3 m/S 747 mmHg 22%
    15:00 +42°C° 0 mm 3 m/S 746 mmHg 23%
    16:00 +39°C° 0 mm 3 m/S 746 mmHg 26%
    17:00 +38°C° 0 mm 3 m/S 746 mmHg 28%
    18:00 +37°C° 0 mm 3 m/S 746 mmHg 31%
    19:00 +36°C° 0 mm 3 m/S 746 mmHg 34%
    20:00 +35°C° 0 mm 3 m/S 746 mmHg 37%
    21:00 +34°C° 0 mm 3 m/S 746 mmHg 40%
    22:00 +34°C° 0 mm 3 m/S 746 mmHg 38%
    23:00 +34°C° 0 mm 3 m/S 746 mmHg 36%

    31 Juli, Montag

    Zeit Temperatur Niederschläge Wind Luftdruck Luftfeuchtigkeit
    00:00 +34°C° 0 mm 3 m/S 745 mmHg 34%
    01:00 +34°C° 0 mm 3 m/S 745 mmHg 33%
    02:00 +34°C° 0 mm 2 m/S 745 mmHg 31%
    03:00 +34°C° 0 mm 2 m/S 744 mmHg 30%
    04:00 +35°C° 0 mm 2 m/S 744 mmHg 29%
    05:00 +35°C° 0 mm 2 m/S 744 mmHg 28%
    06:00 +35°C° 0 mm 2 m/S 745 mmHg 27%
    07:00 +37°C° 0 mm 2 m/S 745 mmHg 25%
    08:00 +39°C° 0 mm 2 m/S 745 mmHg 22%
    09:00 +41°C° 0 mm 1 m/S 745 mmHg 19%
    10:00 +43°C° 0 mm 2 m/S 745 mmHg 18%
    11:00 +45°C° 0 mm 3 m/S 744 mmHg 17%
    12:00 +46°C° 0 mm 3 m/S 744 mmHg 15%
    13:00 +45°C° 0 mm 3 m/S 744 mmHg 18%
    14:00 +44°C° 0 mm 3 m/S 744 mmHg 21%
    15:00 +43°C° 0 mm 3 m/S 744 mmHg 23%
    16:00 +42°C° 0 mm 3 m/S 744 mmHg 26%
    17:00 +40°C° 0 mm 2 m/S 744 mmHg 28%
    18:00 +39°C° 0 mm 2 m/S 744 mmHg 30%
    19:00 +39°C° 0 mm 3 m/S 744 mmHg 29%
    20:00 +39°C° 0 mm 3 m/S 745 mmHg 27%
    21:00 +40°C° 0 mm 4 m/S 745 mmHg 25%
    22:00 +38°C° 0,1 mm 4 m/S 745 mmHg 27%
    23:00 +37°C° 0,1 mm 4 m/S 745 mmHg 28%
    Mehr zeigen